Погода в Паликире

Федеративные Штаты Микронезии     6°55′09″N   158°09′20″E
темп.,
°C
ветер,
м/с
пор.,
м/с
влажн.,
%
обл.,
%
осадки,
мм/ч
давл.,
гПа
погр.,
м
29 июня, ср
ср2901:00+28в5578100 2.6 1008475
04:00+28в5576100 5.3 1008517
07:00+28в5675100 2.8 1009569
10:00+28вюв4575100 3.1 1009749
13:00+29в447584 1.4 1007777
16:00+29в4475100 1.6 1007795
19:00+28в4477100 1.4 1009560
22:00+28в4577100 2.3 1009607
30 июня, чт
чт3001:00+28в447782 1.2 1008618
04:00+28в4578100 2.2 1008666
07:00+28всв557674 0.2 1010777
10:00+28всв567686 0.2 1010868
13:00+29всв4472100 0.0 1008882
16:00+29св44757 0.1 1007731
19:00+28всв5680100 4.3 1009486
22:00+28в91080100 10.5 1010788
1 июля, пт
пт101:00+28вюв101375100 4.1 1008980
04:00+28юв12137972 4.2 10081091
07:00+28юв81075100 0.0 1009985
10:00+28вюв787577 0.0 10101064
13:00+29вюв667141 0.1 10081024
16:00+29всв677379 0.1 1008889
19:00+28всв787795 0.4 1009851
22:00+29всв897875 2.4 1010932
2 июля, сб
сб201:00+28всв8979100 2.1 1008854
04:00+28в787867 3.1 1007836
07:00+28в7778100 1.1 1009803
10:00+29в7879100 2.5 1009873
13:00+28в777916 0.4 1007804
16:00+28в678023 1.5 1006774
19:00+28в6782100 3.4 1007452
22:00+28в6781100 7.7 1008485
3 июля, вс
вс301:00+28всв7882100 6.5 1006446
04:00+27св7884100 13.1 1006542
07:00+26в8993100 16.2 1007560
10:00+26в7888100 27.9 1008595
13:00+26юв101088100 3.2 1006682
16:00+27ююв7784100 3.8 1006683
19:00+27ю4578100 0.0 1007747
22:00+27ююв3376100 0.0 1008601